Location: Montreal
(45.5087°N, 73.5540°W)
Time: 16:32:27
(UTC-04:00)

Envisat - Pass Details

Date: 05 February 2023
Orbit: 763 x 765 km, 98.2° (Epoch: 01 April)

Event Time Altitude Azimuth Distance (km) Brightness Sun altitude
Rises 04:28:12 0° 10° (N) 3,244 6.4 -28.7°
Reaches altitude 10° 04:30:32 10° 6° (N) 2,313 5.6 -28.3°
Enters shadow 04:32:43 26° 359° (N) 1,496 4.5 -27.9°
